Powrót do katalogu

FENGYUN 1C DEB

AktywnySSO
NORAD 30540·DEBRIS·🇨🇳 China

Wystrzelony May 10, 1999 z Taiyuan Satellite Launch Center

Loading…

Następne Przeloty (najbliższe 24 godziny)

TLE

ŚwieżeSource: Space-Track

Epoka: Sep 13, 2026, 14:03 UTC

1 30540U 99025AKE 26256.58593924  .00002679  00000-0  94700-3 0  9990
2 30540  98.8891  17.1780 0049635 335.4493 152.4328 14.34824833 12243

Śledź FENGYUN 1C DEB w czasie rzeczywistym z AllMySat

Download on the App Store